Simultaneous Nadir Overpasses (SNOs) Predictions

Prediction of SNOs between METOP-B and NOAA-19 Satellite Orbit:

Table of predicted SNOs for the next 14.0 days since TLE Epoch: 2/26/2016
Index Date (METOP-B) Time (METOP-B) Lat,Lon (METOP-B) SZA (METOP-B ) Date (NOAA-19) Time (NOAA-19) Lat,Lon (NOAA-19) SZA (NOAA-19 ) Distance(km) Time Diff (sec)
1 03/01/2016 02:48:41 76.09, 138.00 83.49 03/01/2016 02:47:31 76.12, 136.09 83.56 51.12 70
2 03/01/2016 03:39:28 -75.83, -55.54 96.78 03/01/2016 03:38:19 -75.81, -55.53 96.79 1.82 69
3 03/01/2016 04:30:09 75.79, 111.66 83.17 03/01/2016 04:29:26 75.80, 111.73 83.19 2.38 43
4 03/01/2016 05:20:50 -75.81, -80.95 96.83 03/01/2016 05:20:21 -75.80, -81.01 96.83 1.50 29
5 03/01/2016 06:11:31 75.77, 86.25 83.12 03/01/2016 06:11:28 75.79, 86.25 83.15 2.79 3
6 03/01/2016 07:02:12 -75.78,-106.36 96.88 03/01/2016 07:02:23 -75.79,-106.48 96.87 3.33 11
7 03/01/2016 07:52:53 75.74, 60.84 83.08 03/01/2016 07:53:29 75.74, 60.94 83.06 2.83 36
8 03/01/2016 08:43:34 -75.76,-131.78 96.92 03/01/2016 08:44:24 -75.74,-131.80 96.95 2.75 50
9 03/01/2016 09:34:17 75.63, 35.13 82.94 03/01/2016 09:35:30 75.68, 35.61 82.98 14.65 73




NCC Satellite Simultaneous Nadir Overpasses (SNOs) Prediction Service
